Meteo Giornale » Osservazioni meteo Italia » Monte Terminillo

ore: 16:55 - Osservazioni Meteo Monte Terminillo
Lat. 42° 28' N Lon. 12° 59' E Alt. 1874 metri s.l.m.

sereno Europe/Rome

0 °C

Sereno

Temp. 24 Ore

0 °C

0 °C

Ovest/Nord-Ovest

11.1 Km/h

Dew point 0 °C

Umidità 34 %

Visibilità  0 Km

Il sole sorge alle ore 05:37

Il sole tramonta alle ore 20:31

Data e Ora Cielo e Fenomeni T °C DP °C Um. % Pres. hPa Vis. km Vento km/h
Oggi h: 16:55 sereno Sereno 0 0 34 0 0 O/NO 11.1
Oggi h: 15:55 sereno Sereno 0 0 34 0 0 O 11.1
Oggi h: 14:55 sereno Sereno 0 0 50 0 0 O 13
Oggi h: 13:55 sereno Sereno 0 0 28 0 0 O/NO 7.4
Oggi h: 12:55 sereno Sereno 0 0 43 0 0 O 9.3
Oggi h: 11:55 sereno Sereno 0 0 35 0 0 O 5.5
Oggi h: 10:55 sereno Sereno 0 0 56 0 0 SO 5.5
Oggi h: 09:55 sereno Sereno 0 0 35 0 0 O/SO 3.7
Oggi h: 08:55 sereno Sereno 0 0 63 0 0 O/NO 3.7
Oggi h: 07:55 sereno Sereno 0 0 81 0 0 O 5.5
Oggi h: 06:55 sereno Sereno 0 0 87 0 0 S 3.7
Oggi h: 03:55 sereno Sereno 0 0 76 0 0 E 22.2
Oggi h: 02:55 sereno Sereno 0 0 67 0 0 E 25.9
Oggi h: 01:55 sereno Sereno 0 0 72 0 0 E 37
Oggi h: 00:55 sereno Sereno 0 0 87 0 0 E 31.5
Ieri h: 23:55 sereno Sereno 0 0 64 0 0 E 25.9
Ieri h: 22:55 sereno Sereno 0 0 52 0 0 E 18.5
Ieri h: 20:55 sereno Sereno 0 0 64 0 0 E 68.5
Ieri h: 19:55 sereno Sereno 0 0 26 0 0 E 61.1
Ieri h: 18:55 sereno Sereno 0 0 27 0 0 E 48.1
Ieri h: 17:55 sereno Sereno 0 0 39 0 0 E 42.6